#datetime,building,power
2022-11-14T00:00:00,mfh,42.38
2022-11-14T00:01:00,mfh,41.72
2022-11-14T00:02:00,mfh,41.70
2022-11-14T00:03:00,mfh,41.75
2022-11-14T00:04:00,mfh,41.56
2022-11-14T00:05:00,mfh,42.35
2022-11-14T00:06:00,mfh,42.30
2022-11-14T00:07:00,mfh,42.30
2022-11-14T00:08:00,mfh,42.38
2022-11-14T00:09:00,mfh,41.69
2022-11-14T00:10:00,mfh,41.81
2022-11-14T00:11:00,mfh,41.81
2022-11-14T00:12:00,mfh,41.60
2022-11-14T00:13:00,mfh,42.18
2022-11-14T00:14:00,mfh,42.10
2022-11-14T00:15:00,mfh,42.03
2022-11-14T00:16:00,mfh,42.02
2022-11-14T00:17:00,mfh,43.34
2022-11-14T00:18:00,mfh,41.40
2022-11-14T00:19:00,mfh,41.39
2022-11-14T00:20:00,mfh,42.24
2022-11-14T00:21:00,mfh,42.04
2022-11-14T00:22:00,mfh,41.95
2022-11-14T00:23:00,mfh,41.95
2022-11-14T00:24:00,mfh,42.00
2022-11-14T00:25:00,mfh,42.07
2022-11-14T00:26:00,mfh,41.49
2022-11-14T00:27:00,mfh,41.53
2022-11-14T00:28:00,mfh,41.74
2022-11-14T00:29:00,mfh,43.17
2022-11-14T00:30:00,mfh,42.35
2022-11-14T00:31:00,mfh,42.51
2022-11-14T00:32:00,mfh,42.65
2022-11-14T00:33:00,mfh,42.83
2022-11-14T00:34:00,mfh,42.10
2022-11-14T00:35:00,mfh,42.09
2022-11-14T00:36:00,mfh,41.90
2022-11-14T00:37:00,mfh,42.55
2022-11-14T00:38:00,mfh,43.22
2022-11-14T00:39:00,mfh,43.02
2022-11-14T00:40:00,mfh,42.98
2022-11-14T00:41:00,mfh,42.92
2022-11-14T00:42:00,mfh,41.81
2022-11-14T00:43:00,mfh,41.50
2022-11-14T00:44:00,mfh,41.50
2022-11-14T00:45:00,mfh,41.54
2022-11-14T00:46:00,mfh,42.12
2022-11-14T00:47:00,mfh,42.10
2022-11-14T00:48:00,mfh,42.25
2022-11-14T00:49:00,mfh,42.22
2022-11-14T00:50:00,mfh,42.26
2022-11-14T00:51:00,mfh,41.85
2022-11-14T00:52:00,mfh,41.76
2022-11-14T00:53:00,mfh,42.32
2022-11-14T00:54:00,mfh,41.75
2022-11-14T00:55:00,mfh,42.37
2022-11-14T00:56:00,mfh,42.43
2022-11-14T00:57:00,mfh,42.17
2022-11-14T00:58:00,mfh,42.34
2022-11-14T00:59:00,mfh,41.57
2022-11-14T01:00:00,mfh,41.83
2022-11-14T01:01:00,mfh,41.89
2022-11-14T01:02:00,mfh,41.88
2022-11-14T01:03:00,mfh,42.55
2022-11-14T01:04:00,mfh,42.62
2022-11-14T01:05:00,mfh,42.62
2022-11-14T01:06:00,mfh,42.52
2022-11-14T01:07:00,mfh,42.68
2022-11-14T01:08:00,mfh,41.87
2022-11-14T01:09:00,mfh,41.71
2022-11-14T01:10:00,mfh,41.73
2022-11-14T01:11:00,mfh,42.28
2022-11-14T01:12:00,mfh,42.33
2022-11-14T01:13:00,mfh,42.55
2022-11-14T01:14:00,mfh,42.68
2022-11-14T01:15:00,mfh,42.66
2022-11-14T01:16:00,mfh,42.22
2022-11-14T01:17:00,mfh,41.87
2022-11-14T01:18:00,mfh,41.92
2022-11-14T01:19:00,mfh,42.74
2022-11-14T01:20:00,mfh,42.69
2022-11-14T01:21:00,mfh,42.53
2022-11-14T01:22:00,mfh,42.67
2022-11-14T01:23:00,mfh,42.64
2022-11-14T01:24:00,mfh,42.30
2022-11-14T01:25:00,mfh,41.66
2022-11-14T01:26:00,mfh,41.75
2022-11-14T01:27:00,mfh,42.35
2022-11-14T01:28:00,mfh,42.38
2022-11-14T01:29:00,mfh,42.43
2022-11-14T01:30:00,mfh,42.69
2022-11-14T01:31:00,mfh,42.57
2022-11-14T01:32:00,mfh,41.80
2022-11-14T01:33:00,mfh,41.85
2022-11-14T01:34:00,mfh,42.46
2022-11-14T01:35:00,mfh,42.61
2022-11-14T01:36:00,mfh,42.53
2022-11-14T01:37:00,mfh,42.55
2022-11-14T01:38:00,mfh,42.62
2022-11-14T01:39:00,mfh,42.64
2022-11-14T01:40:00,mfh,42.02
2022-11-14T01:41:00,mfh,42.11
2022-11-14T01:42:00,mfh,41.88
2022-11-14T01:43:00,mfh,41.80
2022-11-14T01:44:00,mfh,42.39
2022-11-14T01:45:00,mfh,42.42
2022-11-14T01:46:00,mfh,42.33
2022-11-14T01:47:00,mfh,42.45
2022-11-14T01:48:00,mfh,42.25
2022-11-14T01:49:00,mfh,41.78
2022-11-14T01:50:00,mfh,41.78
2022-11-14T01:51:00,mfh,42.08
2022-11-14T01:52:00,mfh,42.43
2022-11-14T01:53:00,mfh,42.49
2022-11-14T01:54:00,mfh,42.63
2022-11-14T01:55:00,mfh,42.47
2022-11-14T01:56:00,mfh,41.65
2022-11-14T01:57:00,mfh,42.15
2022-11-14T01:58:00,mfh,41.84
2022-11-14T01:59:00,mfh,41.78
2022-11-14T02:00:00,mfh,42.37
2022-11-14T02:01:00,mfh,42.42
2022-11-14T02:02:00,mfh,42.44
2022-11-14T02:03:00,mfh,42.64
2022-11-14T02:04:00,mfh,42.76
2022-11-14T02:05:00,mfh,42.03
2022-11-14T02:06:00,mfh,42.04
2022-11-14T02:07:00,mfh,41.94
2022-11-14T02:08:00,mfh,42.54
2022-11-14T02:09:00,mfh,42.36
2022-11-14T02:10:00,mfh,42.32
2022-11-14T02:11:00,mfh,42.32
2022-11-14T02:12:00,mfh,42.34
2022-11-14T02:13:00,mfh,43.10
2022-11-14T02:14:00,mfh,43.22
2022-11-14T02:15:00,mfh,43.31
2022-11-14T02:16:00,mfh,43.27
2022-11-14T02:17:00,mfh,43.95
2022-11-14T02:18:00,mfh,42.89
2022-11-14T02:19:00,mfh,42.36
2022-11-14T02:20:00,mfh,42.51
2022-11-14T02:21:00,mfh,41.80
2022-11-14T02:22:00,mfh,41.78
2022-11-14T02:23:00,mfh,41.75
2022-11-14T02:24:00,mfh,41.86
2022-11-14T02:25:00,mfh,42.47
2022-11-14T02:26:00,mfh,42.50
2022-11-14T02:27:00,mfh,43.02
2022-11-14T02:28:00,mfh,42.38
2022-11-14T02:29:00,mfh,41.76
2022-11-14T02:30:00,mfh,41.61
2022-11-14T02:31:00,mfh,41.60
2022-11-14T02:32:00,mfh,41.60
2022-11-14T02:33:00,mfh,42.28
2022-11-14T02:34:00,mfh,42.33
2022-11-14T02:35:00,mfh,42.17
2022-11-14T02:36:00,mfh,42.21
2022-11-14T02:37:00,mfh,41.48
2022-11-14T02:38:00,mfh,41.51
2022-11-14T02:39:00,mfh,41.58
2022-11-14T02:40:00,mfh,41.61
2022-11-14T02:41:00,mfh,42.24
2022-11-14T02:42:00,mfh,42.23
2022-11-14T02:43:00,mfh,42.25
2022-11-14T02:44:00,mfh,42.79
2022-11-14T02:45:00,mfh,42.63
2022-11-14T02:46:00,mfh,42.73
2022-11-14T02:47:00,mfh,42.02
2022-11-14T02:48:00,mfh,42.02
2022-11-14T02:49:00,mfh,42.51
2022-11-14T02:50:00,mfh,42.92
2022-11-14T02:51:00,mfh,42.57
2022-11-14T02:52:00,mfh,42.59
2022-11-14T02:53:00,mfh,41.66
2022-11-14T02:54:00,mfh,41.65
2022-11-14T02:55:00,mfh,42.23
2022-11-14T02:56:00,mfh,41.72
2022-11-14T02:57:00,mfh,42.28
2022-11-14T02:58:00,mfh,42.30
2022-11-14T02:59:00,mfh,42.30
2022-11-14T03:00:00,mfh,42.30
2022-11-14T03:01:00,mfh,42.63
2022-11-14T03:02:00,mfh,41.91
2022-11-14T03:03:00,mfh,41.90
2022-11-14T03:04:00,mfh,42.43
2022-11-14T03:05:00,mfh,43.16
2022-11-14T03:06:00,mfh,42.57
2022-11-14T03:07:00,mfh,42.90
2022-11-14T03:08:00,mfh,42.91
2022-11-14T03:09:00,mfh,43.49
2022-11-14T03:10:00,mfh,42.25
2022-11-14T03:11:00,mfh,42.13
2022-11-14T03:12:00,mfh,42.04
2022-11-14T03:13:00,mfh,42.16
2022-11-14T03:14:00,mfh,43.00
2022-11-14T03:15:00,mfh,42.56
2022-11-14T03:16:00,mfh,42.61
2022-11-14T03:17:00,mfh,42.48
2022-11-14T03:18:00,mfh,41.88
2022-11-14T03:19:00,mfh,50.29
2022-11-14T03:20:00,mfh,52.14
2022-11-14T03:21:00,mfh,52.29
2022-11-14T03:22:00,mfh,53.29
2022-11-14T03:23:00,mfh,55.32
2022-11-14T03:24:00,mfh,55.51
2022-11-14T03:25:00,mfh,54.96
2022-11-14T03:26:00,mfh,54.25
2022-11-14T03:27:00,mfh,54.05
2022-11-14T03:28:00,mfh,53.41
2022-11-14T03:29:00,mfh,53.45
2022-11-14T03:30:00,mfh,54.21
2022-11-14T03:31:00,mfh,54.15
2022-11-14T03:32:00,mfh,54.14
2022-11-14T03:33:00,mfh,54.11
2022-11-14T03:34:00,mfh,54.55
2022-11-14T03:35:00,mfh,53.20
2022-11-14T03:36:00,mfh,53.05
2022-11-14T03:37:00,mfh,53.10
2022-11-14T03:38:00,mfh,53.09
2022-11-14T03:39:00,mfh,53.77
2022-11-14T03:40:00,mfh,53.78
2022-11-14T03:41:00,mfh,53.80
2022-11-14T03:42:00,mfh,53.75
2022-11-14T03:43:00,mfh,53.19
2022-11-14T03:44:00,mfh,53.25
2022-11-14T03:45:00,mfh,53.28
2022-11-14T03:46:00,mfh,53.28
2022-11-14T03:47:00,mfh,54.13
2022-11-14T03:48:00,mfh,54.12
2022-11-14T03:49:00,mfh,53.98
2022-11-14T03:50:00,mfh,54.11
2022-11-14T03:51:00,mfh,52.40
2022-11-14T03:52:00,mfh,52.34
2022-11-14T03:53:00,mfh,52.10
2022-11-14T03:54:00,mfh,52.04
2022-11-14T03:55:00,mfh,53.80
2022-11-14T03:56:00,mfh,53.80
2022-11-14T03:57:00,mfh,53.85
2022-11-14T03:58:00,mfh,53.74
2022-11-14T03:59:00,mfh,53.73
2022-11-14T04:00:00,mfh,53.38
2022-11-14T04:01:00,mfh,53.16
2022-11-14T04:02:00,mfh,53.12
2022-11-14T04:03:00,mfh,54.52
2022-11-14T04:04:00,mfh,53.49
2022-11-14T04:05:00,mfh,52.15
2022-11-14T04:06:00,mfh,52.10
2022-11-14T04:07:00,mfh,51.94
2022-11-14T04:08:00,mfh,52.83
2022-11-14T04:09:00,mfh,52.79
2022-11-14T04:10:00,mfh,52.84
2022-11-14T04:11:00,mfh,54.02
2022-11-14T04:12:00,mfh,52.22
2022-11-14T04:13:00,mfh,52.35
2022-11-14T04:14:00,mfh,52.11
2022-11-14T04:15:00,mfh,52.11
2022-11-14T04:16:00,mfh,53.41
2022-11-14T04:17:00,mfh,52.89
2022-11-14T04:18:00,mfh,53.25
2022-11-14T04:19:00,mfh,53.32
2022-11-14T04:20:00,mfh,51.95
2022-11-14T04:21:00,mfh,51.97
2022-11-14T04:22:00,mfh,52.01
2022-11-14T04:23:00,mfh,52.09
2022-11-14T04:24:00,mfh,52.66
2022-11-14T04:25:00,mfh,52.59
2022-11-14T04:26:00,mfh,52.45
2022-11-14T04:27:00,mfh,52.44
2022-11-14T04:28:00,mfh,54.82
2022-11-14T04:29:00,mfh,53.39
2022-11-14T04:30:00,mfh,53.33
2022-11-14T04:31:00,mfh,53.36
2022-11-14T04:32:00,mfh,52.17
2022-11-14T04:33:00,mfh,52.68
2022-11-14T04:34:00,mfh,52.70
2022-11-14T04:35:00,mfh,52.75
2022-11-14T04:36:00,mfh,53.28
2022-11-14T04:37:00,mfh,52.02
2022-11-14T04:38:00,mfh,53.12
2022-11-14T04:39:00,mfh,53.12
2022-11-14T04:40:00,mfh,53.10
2022-11-14T04:41:00,mfh,53.82
2022-11-14T04:42:00,mfh,53.84
2022-11-14T04:43:00,mfh,53.77
2022-11-14T04:44:00,mfh,53.77
2022-11-14T04:45:00,mfh,53.18
2022-11-14T04:46:00,mfh,53.13
2022-11-14T04:47:00,mfh,53.36
2022-11-14T04:48:00,mfh,53.34
2022-11-14T04:49:00,mfh,54.00
2022-11-14T04:50:00,mfh,53.98
2022-11-14T04:51:00,mfh,53.95
2022-11-14T04:52:00,mfh,53.89
2022-11-14T04:53:00,mfh,53.64
2022-11-14T04:54:00,mfh,53.59
2022-11-14T04:55:00,mfh,53.23
2022-11-14T04:56:00,mfh,53.44
2022-11-14T04:57:00,mfh,54.10
2022-11-14T04:58:00,mfh,54.07
2022-11-14T04:59:00,mfh,54.18
2022-11-14T05:00:00,mfh,54.12
2022-11-14T05:01:00,mfh,71.32
2022-11-14T05:02:00,mfh,73.55
2022-11-14T05:03:00,mfh,73.87
2022-11-14T05:04:00,mfh,73.79
2022-11-14T05:05:00,mfh,74.40
2022-11-14T05:06:00,mfh,73.83
2022-11-14T05:07:00,mfh,74.21
2022-11-14T05:08:00,mfh,73.68
2022-11-14T05:09:00,mfh,74.46
2022-11-14T05:10:00,mfh,74.56
2022-11-14T05:11:00,mfh,74.10
2022-11-14T05:12:00,mfh,73.38
2022-11-14T05:13:00,mfh,74.97
2022-11-14T05:14:00,mfh,74.49
2022-11-14T05:15:00,mfh,74.47
2022-11-14T05:16:00,mfh,74.61
2022-11-14T05:17:00,mfh,74.70
2022-11-14T05:18:00,mfh,75.86
2022-11-14T05:19:00,mfh,75.89
2022-11-14T05:20:00,mfh,75.92
2022-11-14T05:21:00,mfh,75.99
2022-11-14T05:22:00,mfh,76.43
2022-11-14T05:23:00,mfh,76.26
2022-11-14T05:24:00,mfh,76.34
2022-11-14T05:25:00,mfh,76.82
2022-11-14T05:26:00,mfh,76.06
2022-11-14T05:27:00,mfh,76.06
2022-11-14T05:28:00,mfh,76.10
2022-11-14T05:29:00,mfh,76.10
2022-11-14T05:30:00,mfh,76.63
2022-11-14T05:31:00,mfh,75.29
2022-11-14T05:32:00,mfh,75.41
2022-11-14T05:33:00,mfh,75.93
2022-11-14T05:34:00,mfh,75.21
2022-11-14T05:35:00,mfh,74.84
2022-11-14T05:36:00,mfh,75.32
2022-11-14T05:37:00,mfh,74.87
2022-11-14T05:38:00,mfh,75.26
2022-11-14T05:39:00,mfh,75.20
2022-11-14T05:40:00,mfh,75.21
2022-11-14T05:41:00,mfh,75.38
2022-11-14T05:42:00,mfh,75.28
2022-11-14T05:43:00,mfh,74.48
2022-11-14T05:44:00,mfh,74.39
2022-11-14T05:45:00,mfh,74.73
2022-11-14T05:46:00,mfh,75.45
2022-11-14T05:47:00,mfh,76.01
2022-11-14T05:48:00,mfh,76.33
2022-11-14T05:49:00,mfh,76.25
2022-11-14T05:50:00,mfh,76.39
2022-11-14T05:51:00,mfh,75.79
2022-11-14T05:52:00,mfh,75.89
2022-11-14T05:53:00,mfh,76.33
2022-11-14T05:54:00,mfh,77.08
2022-11-14T05:55:00,mfh,76.83
2022-11-14T05:56:00,mfh,76.89
2022-11-14T05:57:00,mfh,77.27
2022-11-14T05:58:00,mfh,76.81
2022-11-14T05:59:00,mfh,76.25
2022-11-14T06:00:00,mfh,76.72
2022-11-14T06:01:00,mfh,80.30
2022-11-14T06:02:00,mfh,80.87
2022-11-14T06:03:00,mfh,81.12
2022-11-14T06:04:00,mfh,81.06
2022-11-14T06:05:00,mfh,81.12
2022-11-14T06:06:00,mfh,80.48
2022-11-14T06:07:00,mfh,80.94
2022-11-14T06:08:00,mfh,81.20
2022-11-14T06:09:00,mfh,79.93
2022-11-14T06:10:00,mfh,84.62
2022-11-14T06:11:00,mfh,84.81
2022-11-14T06:12:00,mfh,84.98
2022-11-14T06:13:00,mfh,84.90
2022-11-14T06:14:00,mfh,84.78
2022-11-14T06:15:00,mfh,84.73
2022-11-14T06:16:00,mfh,84.51
2022-11-14T06:17:00,mfh,84.61
2022-11-14T06:18:00,mfh,84.50
2022-11-14T06:19:00,mfh,84.37
2022-11-14T06:20:00,mfh,84.13
2022-11-14T06:21:00,mfh,84.08
2022-11-14T06:22:00,mfh,85.03
2022-11-14T06:23:00,mfh,84.87
2022-11-14T06:24:00,mfh,80.44
2022-11-14T06:25:00,mfh,80.17
2022-11-14T06:26:00,mfh,80.24
2022-11-14T06:27:00,mfh,80.71
2022-11-14T06:28:00,mfh,80.42
2022-11-14T06:29:00,mfh,79.81
2022-11-14T06:30:00,mfh,80.09
2022-11-14T06:31:00,mfh,80.01
2022-11-14T06:32:00,mfh,80.34
2022-11-14T06:33:00,mfh,80.33
2022-11-14T06:34:00,mfh,80.48
2022-11-14T06:35:00,mfh,80.35
2022-11-14T06:36:00,mfh,80.46
2022-11-14T06:37:00,mfh,80.39
2022-11-14T06:38:00,mfh,80.36
2022-11-14T06:39:00,mfh,80.05
2022-11-14T06:40:00,mfh,79.50
2022-11-14T06:41:00,mfh,79.46
2022-11-14T06:42:00,mfh,79.31
2022-11-14T06:43:00,mfh,80.09
2022-11-14T06:44:00,mfh,78.64
2022-11-14T06:45:00,mfh,78.61
2022-11-14T06:46:00,mfh,78.61
2022-11-14T06:47:00,mfh,79.08
2022-11-14T06:48:00,mfh,78.69
2022-11-14T06:49:00,mfh,78.66
2022-11-14T06:50:00,mfh,78.09
2022-11-14T06:51:00,mfh,83.77
2022-11-14T06:52:00,mfh,84.36
2022-11-14T06:53:00,mfh,84.37
2022-11-14T06:54:00,mfh,84.39
2022-11-14T06:55:00,mfh,84.26
2022-11-14T06:56:00,mfh,84.21
2022-11-14T06:57:00,mfh,84.02
2022-11-14T06:58:00,mfh,84.06
2022-11-14T06:59:00,mfh,78.66
2022-11-14T07:00:00,mfh,78.24
2022-11-14T07:01:00,mfh,78.15
2022-11-14T07:02:00,mfh,78.02
2022-11-14T07:03:00,mfh,78.53
2022-11-14T07:04:00,mfh,78.98
2022-11-14T07:05:00,mfh,79.18
2022-11-14T07:06:00,mfh,79.17
2022-11-14T07:07:00,mfh,79.49
2022-11-14T07:08:00,mfh,78.69
2022-11-14T07:09:00,mfh,78.87
2022-11-14T07:10:00,mfh,78.28
2022-11-14T07:11:00,mfh,78.27
2022-11-14T07:12:00,mfh,78.01
2022-11-14T07:13:00,mfh,78.65
2022-11-14T07:14:00,mfh,79.09
2022-11-14T07:15:00,mfh,78.62
2022-11-14T07:16:00,mfh,78.56
2022-11-14T07:17:00,mfh,78.73
2022-11-14T07:18:00,mfh,79.67
2022-11-14T07:19:00,mfh,78.83
2022-11-14T07:20:00,mfh,78.32
2022-11-14T07:21:00,mfh,78.05
2022-11-14T07:22:00,mfh,78.39
2022-11-14T07:23:00,mfh,78.31
2022-11-14T07:24:00,mfh,78.40
2022-11-14T07:25:00,mfh,78.87
2022-11-14T07:26:00,mfh,78.36
2022-11-14T07:27:00,mfh,78.42
2022-11-14T07:28:00,mfh,78.60
2022-11-14T07:29:00,mfh,79.27
2022-11-14T07:30:00,mfh,78.72
2022-11-14T07:31:00,mfh,78.42
2022-11-14T07:32:00,mfh,78.59
2022-11-14T07:33:00,mfh,78.60
2022-11-14T07:34:00,mfh,78.61
2022-11-14T07:35:00,mfh,78.66
2022-11-14T07:36:00,mfh,78.76
2022-11-14T07:37:00,mfh,78.79
2022-11-14T07:38:00,mfh,80.98
2022-11-14T07:39:00,mfh,88.32
2022-11-14T07:40:00,mfh,88.84
2022-11-14T07:41:00,mfh,88.63
2022-11-14T07:42:00,mfh,88.53
2022-11-14T07:43:00,mfh,88.54
2022-11-14T07:44:00,mfh,88.44
2022-11-14T07:45:00,mfh,88.39
2022-11-14T07:46:00,mfh,88.25
2022-11-14T07:47:00,mfh,88.17
2022-11-14T07:48:00,mfh,88.02
2022-11-14T07:49:00,mfh,88.02
2022-11-14T07:50:00,mfh,84.41
2022-11-14T07:51:00,mfh,84.38
2022-11-14T07:52:00,mfh,84.47
2022-11-14T07:53:00,mfh,84.59
2022-11-14T07:54:00,mfh,84.64
2022-11-14T07:55:00,mfh,82.89
2022-11-14T07:56:00,mfh,82.94
2022-11-14T07:57:00,mfh,77.92
2022-11-14T07:58:00,mfh,77.78
2022-11-14T07:59:00,mfh,78.15
2022-11-14T08:00:00,mfh,77.61
2022-11-14T08:01:00,mfh,77.59
2022-11-14T08:02:00,mfh,77.54
2022-11-14T08:03:00,mfh,78.89
2022-11-14T08:04:00,mfh,78.17
2022-11-14T08:05:00,mfh,78.04
2022-11-14T08:06:00,mfh,78.76
2022-11-14T08:07:00,mfh,89.98
2022-11-14T08:08:00,mfh,90.43
2022-11-14T08:09:00,mfh,90.47
2022-11-14T08:10:00,mfh,90.27
2022-11-14T08:11:00,mfh,90.09
2022-11-14T08:12:00,mfh,90.01
2022-11-14T08:13:00,mfh,89.98
2022-11-14T08:14:00,mfh,89.70
2022-11-14T08:15:00,mfh,89.66
2022-11-14T08:16:00,mfh,89.83
2022-11-14T08:17:00,mfh,89.76
2022-11-14T08:18:00,mfh,89.58
2022-11-14T08:19:00,mfh,89.49
2022-11-14T08:20:00,mfh,89.57
2022-11-14T08:21:00,mfh,87.21
2022-11-14T08:22:00,mfh,87.27
2022-11-14T08:23:00,mfh,87.17
2022-11-14T08:24:00,mfh,87.03
2022-11-14T08:25:00,mfh,87.15
2022-11-14T08:26:00,mfh,86.98
2022-11-14T08:27:00,mfh,87.20
2022-11-14T08:28:00,mfh,87.31
2022-11-14T08:29:00,mfh,86.15
2022-11-14T08:30:00,mfh,85.92
2022-11-14T08:31:00,mfh,85.88
2022-11-14T08:32:00,mfh,85.65
2022-11-14T08:33:00,mfh,85.71
2022-11-14T08:34:00,mfh,85.60
2022-11-14T08:35:00,mfh,85.57
2022-11-14T08:36:00,mfh,86.09
2022-11-14T08:37:00,mfh,87.12
2022-11-14T08:38:00,mfh,87.29
2022-11-14T08:39:00,mfh,87.23
2022-11-14T08:40:00,mfh,87.27
2022-11-14T08:41:00,mfh,87.24
2022-11-14T08:42:00,mfh,87.18
2022-11-14T08:43:00,mfh,87.25
2022-11-14T08:44:00,mfh,87.37
2022-11-14T08:45:00,mfh,87.13
2022-11-14T08:46:00,mfh,87.13
2022-11-14T08:47:00,mfh,87.47
2022-11-14T08:48:00,mfh,87.64
2022-11-14T08:49:00,mfh,87.43
2022-11-14T08:50:00,mfh,87.50
2022-11-14T08:51:00,mfh,87.59
2022-11-14T08:52:00,mfh,87.59
2022-11-14T08:53:00,mfh,87.55
2022-11-14T08:54:00,mfh,87.77
2022-11-14T08:55:00,mfh,87.53
2022-11-14T08:56:00,mfh,87.46
2022-11-14T08:57:00,mfh,87.76
2022-11-14T08:58:00,mfh,87.96
2022-11-14T08:59:00,mfh,87.87
2022-11-14T09:00:00,mfh,87.96
2022-11-14T09:01:00,mfh,87.97
2022-11-14T09:02:00,mfh,87.95
2022-11-14T09:03:00,mfh,88.09
2022-11-14T09:04:00,mfh,87.82
2022-11-14T09:05:00,mfh,87.86
2022-11-14T09:06:00,mfh,87.77
2022-11-14T09:07:00,mfh,87.76
2022-11-14T09:08:00,mfh,90.04
2022-11-14T09:09:00,mfh,91.10
2022-11-14T09:10:00,mfh,91.00
2022-11-14T09:11:00,mfh,90.38
2022-11-14T09:12:00,mfh,90.58
2022-11-14T09:13:00,mfh,90.68
2022-11-14T09:14:00,mfh,90.53
2022-11-14T09:15:00,mfh,90.40
2022-11-14T09:16:00,mfh,90.62
2022-11-14T09:17:00,mfh,90.17
2022-11-14T09:18:00,mfh,90.04
2022-11-14T09:19:00,mfh,89.99
2022-11-14T09:20:00,mfh,89.96
2022-11-14T09:21:00,mfh,89.92
2022-11-14T09:22:00,mfh,90.66
2022-11-14T09:23:00,mfh,90.53
2022-11-14T09:24:00,mfh,90.02
2022-11-14T09:25:00,mfh,90.02
2022-11-14T09:26:00,mfh,89.05
2022-11-14T09:27:00,mfh,89.22
2022-11-14T09:28:00,mfh,89.19
2022-11-14T09:29:00,mfh,89.12
2022-11-14T09:30:00,mfh,89.02
2022-11-14T09:31:00,mfh,90.07
2022-11-14T09:32:00,mfh,90.03
2022-11-14T09:33:00,mfh,90.37
2022-11-14T09:34:00,mfh,90.12
2022-11-14T09:35:00,mfh,90.22
2022-11-14T09:36:00,mfh,90.25
2022-11-14T09:37:00,mfh,90.23
2022-11-14T09:38:00,mfh,90.09
2022-11-14T09:39:00,mfh,89.83
2022-11-14T09:40:00,mfh,89.96
2022-11-14T09:41:00,mfh,90.01
2022-11-14T09:42:00,mfh,89.97
2022-11-14T09:43:00,mfh,90.04
2022-11-14T09:44:00,mfh,89.90
2022-11-14T09:45:00,mfh,90.12
2022-11-14T09:46:00,mfh,90.03
2022-11-14T09:47:00,mfh,89.98
2022-11-14T09:48:00,mfh,90.03
2022-11-14T09:49:00,mfh,89.90
2022-11-14T09:50:00,mfh,89.98
2022-11-14T09:51:00,mfh,89.97
2022-11-14T09:52:00,mfh,89.79
2022-11-14T09:53:00,mfh,89.79
2022-11-14T09:54:00,mfh,89.88
2022-11-14T09:55:00,mfh,89.77
2022-11-14T09:56:00,mfh,89.87
2022-11-14T09:57:00,mfh,89.73
2022-11-14T09:58:00,mfh,89.80
2022-11-14T09:59:00,mfh,89.76
2022-11-14T10:00:00,mfh,89.75
2022-11-14T10:01:00,mfh,89.72
2022-11-14T10:02:00,mfh,89.89
2022-11-14T10:03:00,mfh,89.83
2022-11-14T10:04:00,mfh,89.86
2022-11-14T10:05:00,mfh,89.78
2022-11-14T10:06:00,mfh,89.81
2022-11-14T10:07:00,mfh,89.88
2022-11-14T10:08:00,mfh,89.70
2022-11-14T10:09:00,mfh,90.17
2022-11-14T10:10:00,mfh,89.69
2022-11-14T10:11:00,mfh,89.66
2022-11-14T10:12:00,mfh,90.01
2022-11-14T10:13:00,mfh,89.80
2022-11-14T10:14:00,mfh,89.82
2022-11-14T10:15:00,mfh,88.71
2022-11-14T10:16:00,mfh,85.83
2022-11-14T10:17:00,mfh,85.51
2022-11-14T10:18:00,mfh,85.44
2022-11-14T10:19:00,mfh,85.18
2022-11-14T10:20:00,mfh,85.08
2022-11-14T10:21:00,mfh,86.10
2022-11-14T10:22:00,mfh,85.60
2022-11-14T10:23:00,mfh,85.61
2022-11-14T10:24:00,mfh,86.08
2022-11-14T10:25:00,mfh,85.80
2022-11-14T10:26:00,mfh,86.48
2022-11-14T10:27:00,mfh,86.67
2022-11-14T10:28:00,mfh,86.66
2022-11-14T10:29:00,mfh,86.37
2022-11-14T10:30:00,mfh,81.94
2022-11-14T10:31:00,mfh,86.39
2022-11-14T10:32:00,mfh,86.35
2022-11-14T10:33:00,mfh,86.65
2022-11-14T10:34:00,mfh,86.69
2022-11-14T10:35:00,mfh,85.53
2022-11-14T10:36:00,mfh,85.49
2022-11-14T10:37:00,mfh,85.30
2022-11-14T10:38:00,mfh,85.43
2022-11-14T10:39:00,mfh,85.28
2022-11-14T10:40:00,mfh,85.32
2022-11-14T10:41:00,mfh,84.93
2022-11-14T10:42:00,mfh,85.23
2022-11-14T10:43:00,mfh,85.19
2022-11-14T10:44:00,mfh,85.40
2022-11-14T10:45:00,mfh,85.21
2022-11-14T10:46:00,mfh,85.28
2022-11-14T10:47:00,mfh,81.15
2022-11-14T10:48:00,mfh,79.79
2022-11-14T10:49:00,mfh,79.60
2022-11-14T10:50:00,mfh,79.41
2022-11-14T10:51:00,mfh,79.42
2022-11-14T10:52:00,mfh,79.82
2022-11-14T10:53:00,mfh,79.46
2022-11-14T10:54:00,mfh,79.44
2022-11-14T10:55:00,mfh,79.60
2022-11-14T10:56:00,mfh,79.73
2022-11-14T10:57:00,mfh,79.90
2022-11-14T10:58:00,mfh,79.54
2022-11-14T10:59:00,mfh,79.69
2022-11-14T11:00:00,mfh,81.46
2022-11-14T11:01:00,mfh,86.68
2022-11-14T11:02:00,mfh,88.53
2022-11-14T11:03:00,mfh,88.62
2022-11-14T11:04:00,mfh,88.64
2022-11-14T11:05:00,mfh,88.61
2022-11-14T11:06:00,mfh,88.41
2022-11-14T11:07:00,mfh,88.23
2022-11-14T11:08:00,mfh,87.78
2022-11-14T11:09:00,mfh,89.76
2022-11-14T11:10:00,mfh,89.88
2022-11-14T11:11:00,mfh,89.92
2022-11-14T11:12:00,mfh,89.96
2022-11-14T11:13:00,mfh,89.83
2022-11-14T11:14:00,mfh,89.74
2022-11-14T11:15:00,mfh,89.67
2022-11-14T11:16:00,mfh,89.67
2022-11-14T11:17:00,mfh,89.67
2022-11-14T11:18:00,mfh,89.59
2022-11-14T11:19:00,mfh,89.53
2022-11-14T11:20:00,mfh,89.66
2022-11-14T11:21:00,mfh,89.65
2022-11-14T11:22:00,mfh,89.56
2022-11-14T11:23:00,mfh,89.50
2022-11-14T11:24:00,mfh,89.48
2022-11-14T11:25:00,mfh,89.49
2022-11-14T11:26:00,mfh,89.50
2022-11-14T11:27:00,mfh,89.38
2022-11-14T11:28:00,mfh,89.25
2022-11-14T11:29:00,mfh,89.32
2022-11-14T11:30:00,mfh,89.44
2022-11-14T11:31:00,mfh,89.39
2022-11-14T11:32:00,mfh,89.35
2022-11-14T11:33:00,mfh,89.37
2022-11-14T11:34:00,mfh,89.43
2022-11-14T11:35:00,mfh,87.18
2022-11-14T11:36:00,mfh,87.14
2022-11-14T11:37:00,mfh,87.26
2022-11-14T11:38:00,mfh,87.63
2022-11-14T11:39:00,mfh,87.26
2022-11-14T11:40:00,mfh,87.33
2022-11-14T11:41:00,mfh,87.60
2022-11-14T11:42:00,mfh,87.62
2022-11-14T11:43:00,mfh,87.52
2022-11-14T11:44:00,mfh,87.53
2022-11-14T11:45:00,mfh,87.56
2022-11-14T11:46:00,mfh,87.50
2022-11-14T11:47:00,mfh,87.56
2022-11-14T11:48:00,mfh,89.71
2022-11-14T11:49:00,mfh,89.98
2022-11-14T11:50:00,mfh,89.92
2022-11-14T11:51:00,mfh,88.75
2022-11-14T11:52:00,mfh,88.77
2022-11-14T11:53:00,mfh,86.06
2022-11-14T11:54:00,mfh,86.08
2022-11-14T11:55:00,mfh,80.06
2022-11-14T11:56:00,mfh,78.97
2022-11-14T11:57:00,mfh,78.69
2022-11-14T11:58:00,mfh,79.79
2022-11-14T11:59:00,mfh,80.13
2022-11-14T12:00:00,mfh,79.80
2022-11-14T12:01:00,mfh,80.12
2022-11-14T12:02:00,mfh,80.32
2022-11-14T12:03:00,mfh,80.26
2022-11-14T12:04:00,mfh,80.61
2022-11-14T12:05:00,mfh,80.37
2022-11-14T12:06:00,mfh,80.03
2022-11-14T12:07:00,mfh,80.11
2022-11-14T12:08:00,mfh,79.86
2022-11-14T12:09:00,mfh,79.85
2022-11-14T12:10:00,mfh,79.84
2022-11-14T12:11:00,mfh,80.24
2022-11-14T12:12:00,mfh,80.41
2022-11-14T12:13:00,mfh,80.48
2022-11-14T12:14:00,mfh,80.70
2022-11-14T12:15:00,mfh,80.59
2022-11-14T12:16:00,mfh,80.91
2022-11-14T12:17:00,mfh,81.17
2022-11-14T12:18:00,mfh,80.89
2022-11-14T12:19:00,mfh,80.06
2022-11-14T12:20:00,mfh,80.82
2022-11-14T12:21:00,mfh,81.12
2022-11-14T12:22:00,mfh,81.51
2022-11-14T12:23:00,mfh,82.87
2022-11-14T12:24:00,mfh,81.52
2022-11-14T12:25:00,mfh,81.57
2022-11-14T12:26:00,mfh,81.31
2022-11-14T12:27:00,mfh,81.40
2022-11-14T12:28:00,mfh,80.85
2022-11-14T12:29:00,mfh,80.86
2022-11-14T12:30:00,mfh,81.15
2022-11-14T12:31:00,mfh,81.18
2022-11-14T12:32:00,mfh,81.10
2022-11-14T12:33:00,mfh,81.20
2022-11-14T12:34:00,mfh,81.16
2022-11-14T12:35:00,mfh,80.73
2022-11-14T12:36:00,mfh,81.18
2022-11-14T12:37:00,mfh,81.03
2022-11-14T12:38:00,mfh,80.33
2022-11-14T12:39:00,mfh,81.23
2022-11-14T12:40:00,mfh,81.00
2022-11-14T12:41:00,mfh,80.24
2022-11-14T12:42:00,mfh,80.43
2022-11-14T12:43:00,mfh,80.33
2022-11-14T12:44:00,mfh,80.61
2022-11-14T12:45:00,mfh,80.17
2022-11-14T12:46:00,mfh,79.94
2022-11-14T12:47:00,mfh,80.03
2022-11-14T12:48:00,mfh,80.28
2022-11-14T12:49:00,mfh,79.82
2022-11-14T12:50:00,mfh,80.07
2022-11-14T12:51:00,mfh,80.58
2022-11-14T12:52:00,mfh,80.69
2022-11-14T12:53:00,mfh,80.61
2022-11-14T12:54:00,mfh,80.55
2022-11-14T12:55:00,mfh,80.10
2022-11-14T12:56:00,mfh,80.09
2022-11-14T12:57:00,mfh,80.51
2022-11-14T12:58:00,mfh,80.01
2022-11-14T12:59:00,mfh,79.86
2022-11-14T13:00:00,mfh,80.43
2022-11-14T13:01:00,mfh,80.42
2022-11-14T13:02:00,mfh,81.08
2022-11-14T13:03:00,mfh,81.01
2022-11-14T13:04:00,mfh,80.60
2022-11-14T13:05:00,mfh,80.90
2022-11-14T13:06:00,mfh,81.08
2022-11-14T13:07:00,mfh,81.03
2022-11-14T13:08:00,mfh,80.84
2022-11-14T13:09:00,mfh,80.65
2022-11-14T13:10:00,mfh,80.42
2022-11-14T13:11:00,mfh,82.06
2022-11-14T13:12:00,mfh,80.87
2022-11-14T13:13:00,mfh,80.73
2022-11-14T13:14:00,mfh,80.83
2022-11-14T13:15:00,mfh,80.83
2022-11-14T13:16:00,mfh,80.76
2022-11-14T13:17:00,mfh,80.79
2022-11-14T13:18:00,mfh,80.39